Weather History for Toccoa Rg Letourneau Field, T, GA

Change the Weather History Date:

Sunday, January 19, 2014

  Actual Average Record
Temperature  
Mean Temperature 44 °F -  
Max Temperature 58 °F 52 °F 58 °F (2014)
Min Temperature 29 °F 33 °F 29 °F (2014)
Degree Days  
Heating Degree Days 22    
Moisture  
Dew Point 23 °F    
Average Humidity 47    
Maximum Humidity 74    
Minimum Humidity 20    
Precipitation  
Precipitation 0.00 in - - ()
Sea Level Pressure  
Sea Level Pressure 29.98 in    
Wind  
Wind Speed 4 mph (WSW)    
Max Wind Speed 12 mph    
Max Gust Speed 24 mph    
Visibility 10 miles    
Events      
Averages and records for this station are not official NWS values.
T = Trace of Precipitation, MM = Missing Value Source: NWS Daily Summary

Daily Weather History Graph

Daily Weather History Graph

Search for Another Location

Airport:

Trip Planner

Search our weather history database for the weather conditions in past years. The results will help you decide how hot, cold, wet, or windy it might be!

Date:

Astronomy

Jan. 19, 2014 Rise Set
Actual Time 7:38 AM EST 5:49 PM EST
Civil Twilight 7:11 AM EST 6:16 PM EST
Nautical Twilight 6:40 AM EST 6:47 PM EST
Astronomical Twilight 6:10 AM EST 7:17 PM EST
Moon 9:15 PM EST (1/19) 9:17 AM EST (1/19)
Length of Visible Light 11h 05m
Length of Day
10h 11m
Waning Gibbous, 89% of the Moon is Illuminated
Jan 19
Waning Gibbous
Jan 24
Last Quarter
Jan 30
New
Feb 6
First Quarter
Feb 14
Full

Hourly Weather History & Observations

Time (EST) Temp. Windchill Dew Point Humidity Pressure Visibility Wind Dir Wind Speed Gust Speed Precip Events Conditions
12:15 AM 32.9 °F - 18.7 °F 56% 29.98 in 10.0 mi Calm Calm - N/A   Overcast
12:35 AM 32.9 °F - 21.0 °F 62% 29.98 in 10.0 mi Calm Calm - N/A   Overcast
12:55 AM 32.5 °F - 21.4 °F 64% 29.97 in 10.0 mi Calm Calm - N/A   Mostly Cloudy
1:15 AM 33.3 °F - 19.9 °F 58% 29.96 in 10.0 mi Calm Calm - N/A   Mostly Cloudy
1:35 AM 32.9 °F - 21.0 °F 62% 29.96 in 10.0 mi Calm Calm - N/A   Scattered Clouds
1:55 AM 32.9 °F - 21.0 °F 62% 29.95 in 10.0 mi Calm Calm - N/A   Mostly Cloudy
2:15 AM 32.0 °F - 22.1 °F 67% 29.95 in 10.0 mi Calm Calm - N/A   Scattered Clouds
2:35 AM 32.4 °F - 22.6 °F 67% 29.94 in 10.0 mi Calm Calm - N/A   Mostly Cloudy
2:55 AM 32.0 °F - 24.4 °F 74% 29.95 in 10.0 mi Calm Calm - N/A   Overcast
3:15 AM 33.3 °F - 21.9 °F 63% 29.96 in 10.0 mi Calm Calm - N/A   Overcast
3:35 AM 33.6 °F 30.6 °F 21.9 °F 62% 29.95 in 10.0 mi SSW 3.5 mph - N/A   Overcast
3:55 AM 34.3 °F 31.4 °F 18.5 °F 52% 29.94 in 10.0 mi SSW 3.5 mph - N/A   Overcast
4:15 AM 34.5 °F - 17.4 °F 50% 29.94 in 10.0 mi Calm Calm - N/A   Overcast
4:35 AM 33.1 °F - 20.1 °F 59% 29.94 in 10.0 mi Calm Calm - N/A   Overcast
4:55 AM 33.1 °F - 20.1 °F 59% 29.94 in 10.0 mi Calm Calm - N/A   Overcast
5:15 AM 32.9 °F 27.5 °F 17.4 °F 53% 29.94 in 10.0 mi West 5.8 mph - N/A   Scattered Clouds
5:35 AM 30.7 °F 22.0 °F 19.9 °F 64% 29.93 in 10.0 mi SW 10.4 mph - N/A   Clear
5:55 AM 32.0 °F 27.5 °F 18.3 °F 57% 29.93 in 10.0 mi WSW 4.6 mph - N/A   Clear
6:15 AM 31.8 °F 27.3 °F 18.1 °F 57% 29.93 in 10.0 mi SW 4.6 mph - N/A   Clear
6:35 AM 31.8 °F 24.6 °F 18.3 °F 57% 29.94 in 10.0 mi SW 8.1 mph - N/A   Clear
6:55 AM 32.4 °F - 17.8 °F 55% 29.95 in 10.0 mi Calm Calm - N/A   Clear
7:15 AM 30.9 °F - 18.5 °F 60% 29.95 in 10.0 mi Calm Calm - N/A   Clear
7:35 AM 31.3 °F - 18.1 °F 58% 29.96 in 10.0 mi Calm Calm - N/A   Clear
7:55 AM 29.1 °F 23.0 °F 19.6 °F 68% 29.96 in 10.0 mi WSW 5.8 mph - N/A   Clear
8:15 AM 31.5 °F - 20.1 °F 63% 29.97 in 10.0 mi Calm Calm - N/A   Clear
8:35 AM 33.1 °F 28.7 °F 23.0 °F 66% 29.97 in 10.0 mi WSW 4.6 mph - N/A   Clear
8:55 AM 39.2 °F 34.2 °F 22.5 °F 51% 29.97 in 10.0 mi WSW 6.9 mph - N/A   Clear
9:15 AM 41.4 °F 38.4 °F 22.1 °F 46% 29.97 in 10.0 mi SW 4.6 mph - N/A   Clear
9:35 AM 42.6 °F 39.9 °F 23.7 °F 47% 29.98 in 10.0 mi SW 4.6 mph - N/A   Clear
9:55 AM 45.3 °F 43.0 °F 23.9 °F 43% 29.99 in 10.0 mi SW 4.6 mph - N/A   Clear
10:15 AM 47.8 °F - 24.3 °F 40% 30.00 in 10.0 mi West 5.8 mph - N/A   Clear
10:35 AM 49.5 °F - 25.0 °F 38% 30.00 in 10.0 mi WNW 5.8 mph - N/A   Clear
10:55 AM 50.5 °F - 24.8 °F 37% 30.00 in 10.0 mi WNW 6.9 mph - N/A   Clear
11:15 AM 52.5 °F - 25.0 °F 34% 30.00 in 10.0 mi West 9.2 mph - N/A   Clear
11:35 AM 53.1 °F - 25.3 °F 34% 30.00 in 10.0 mi WNW 5.8 mph 16.1 mph N/A   Clear
11:55 AM 54.0 °F - 25.5 °F 33% 30.00 in 10.0 mi NW 5.8 mph 16.1 mph N/A   Clear
12:15 PM 54.3 °F - 25.5 °F 33% 29.99 in 10.0 mi WNW 5.8 mph - N/A   Clear
12:35 PM 54.7 °F - 25.9 °F 33% 29.98 in 10.0 mi West 10.4 mph 18.4 mph N/A   Clear
12:55 PM 55.6 °F - 25.9 °F 32% 29.98 in 10.0 mi West 9.2 mph 17.3 mph N/A   Clear
1:15 PM 55.4 °F - 25.5 °F 32% 29.98 in 10.0 mi WSW 10.4 mph 16.1 mph N/A   Clear
1:35 PM 55.6 °F - 24.3 °F 30% 29.98 in 10.0 mi WNW 9.2 mph 19.6 mph N/A   Clear
1:55 PM 56.5 °F - 24.1 °F 29% 29.97 in 10.0 mi West 6.9 mph 17.3 mph N/A   Clear
2:15 PM 57.2 °F - 24.3 °F 28% 29.97 in 10.0 mi West 8.1 mph - N/A   Clear
2:35 PM 57.9 °F - 23.0 °F 26% 29.96 in 10.0 mi WNW 8.1 mph - N/A   Clear
2:55 PM 57.9 °F - 22.1 °F 25% 29.97 in 10.0 mi WNW 11.5 mph 17.3 mph N/A   Clear
3:15 PM 57.7 °F - 21.4 °F 24% 29.98 in 10.0 mi West 8.1 mph 24.2 mph N/A   Clear
3:35 PM 58.5 °F - 22.8 °F 25% 29.98 in 10.0 mi West 11.5 mph 17.3 mph N/A   Clear
3:55 PM 57.9 °F - 21.2 °F 24% 29.98 in 10.0 mi West 9.2 mph 16.1 mph N/A   Clear
4:15 PM 57.7 °F - 17.1 °F 20% 29.99 in 10.0 mi West 9.2 mph 16.1 mph N/A   Clear
4:35 PM 56.7 °F - 16.7 °F 21% 29.99 in 10.0 mi West 9.2 mph - N/A   Clear
4:55 PM 56.1 °F - 17.1 °F 22% 29.99 in 10.0 mi West 9.2 mph - N/A   Clear
5:15 PM 55.4 °F - 17.2 °F 22% 30.00 in 10.0 mi West 9.2 mph - N/A   Clear
5:35 PM 54.1 °F - 18.5 °F 25% 30.01 in 10.0 mi WNW 5.8 mph - N/A   Clear
5:55 PM 52.7 °F - 18.1 °F 26% 30.01 in 10.0 mi West 5.8 mph - N/A   Clear
6:15 PM 51.6 °F - 18.9 °F 28% 30.01 in 10.0 mi West 6.9 mph - N/A   Clear
6:35 PM 50.9 °F - 23.9 °F 35% 30.02 in 10.0 mi West 6.9 mph - N/A   Clear
6:55 PM 49.6 °F - 26.4 °F 41% 30.02 in 10.0 mi West 5.8 mph - N/A   Clear
7:15 PM 49.1 °F - 27.1 °F 43% 30.02 in 10.0 mi West 6.9 mph - N/A   Clear
7:55 PM 45.5 °F 41.8 °F 27.9 °F 50% 30.03 in 10.0 mi WSW 6.9 mph - N/A   Clear
8:15 PM 44.1 °F 40.8 °F 27.9 °F 53% 30.03 in 10.0 mi SW 5.8 mph - N/A   Clear
8:35 PM 44.6 °F 43.1 °F 27.5 °F 51% 30.03 in 10.0 mi SSW 3.5 mph - N/A   Clear
8:55 PM 41.4 °F 36.8 °F 27.9 °F 59% 30.02 in 10.0 mi SW 6.9 mph - N/A   Clear
9:15 PM 43.3 °F 41.7 °F 27.5 °F 54% 30.02 in 10.0 mi WSW 3.5 mph - N/A   Clear
9:35 PM 43.7 °F 41.1 °F 26.8 °F 51% 30.02 in 10.0 mi West 4.6 mph - N/A   Clear
9:55 PM 43.9 °F 40.5 °F 26.2 °F 50% 30.02 in 10.0 mi West 5.8 mph - N/A   Clear
10:15 PM 44.2 °F 40.3 °F 26.1 °F 49% 30.01 in 10.0 mi West 6.9 mph - N/A   Clear
10:35 PM 43.9 °F 40.5 °F 25.7 °F 49% 30.01 in 10.0 mi West 5.8 mph - N/A   Clear
10:55 PM 40.3 °F 36.3 °F 26.4 °F 58% 30.00 in 10.0 mi SW 5.8 mph - N/A   Clear
11:15 PM 38.8 °F 36.5 °F 26.4 °F 61% 30.00 in 10.0 mi SW 3.5 mph - N/A   Clear
11:35 PM 38.5 °F 33.4 °F 26.8 °F 63% 30.00 in 10.0 mi SW 6.9 mph - N/A   Clear
11:55 PM 39.0 °F 32.8 °F 27.3 °F 63% 29.99 in 10.0 mi WSW 9.2 mph - N/A   Clear